Hourly Weather Roundup
Issued by NWS Central Illinois

Home | Current Version | Previous Version | Text Only | Print | Product List | Glossary On
Versions: 1 2 3 4 5 6 7 8 9 10 11 12 13 14 15 16 17 18 19 20 21 22 23 24 25 26 27 28 29 30 31 32 33 34 35 36 37 38 39 40 41 42 43 44 45 46 47 48 49 50
000
NZUS43 KILX 220610
HWRILX

AREA WEATHER ROUNDUP
NATIONAL WEATHER SERVICE, LINCOLN IL
100 AM CDT FRI JUL 22 2016


CITY           SKY/WX    TMP DP  RH WIND       PRES   REMARKS
BLOOMINGTON    LGT RAIN  70  68  93 S7        30.08F
6HR MIN TEMP:  69; 6HR MAX TEMP:  88; 6HR PCP:  1.19;

CHAMPAIGN      HVY RAIN  72  70  93 N21G30    30.08R FOG
6HR MIN TEMP:  75; 6HR MAX TEMP:  84; 6HR PCP: TRACE;

DANVILLE       CLOUDY    80  78  93 SW5       30.03S HX  85
6HR MIN TEMP:  80; 6HR MAX TEMP:  85;

DECATUR        CLOUDY    75  68  78 N18G35    30.11R
6HR MIN TEMP:  77; 6HR MAX TEMP:  91;

EFFINGHAM      PTCLDY    82  79  93 S5        30.06S HX  92
FLORA          CLEAR     82  78  90 S5        30.04F HX  91
6HR MIN TEMP:  80; 6HR MAX TEMP:  91;

GALESBURG      CLOUDY    70  67  92 E14G22    30.08S
JACKSONVILLE   CLOUDY    83  78  87 CALM      30.02R HX  93
6HR MIN TEMP:  83; 6HR MAX TEMP:  90;

LACON          CLOUDY    70  69  96 NW3       30.07F
6HR MIN TEMP:  70; 6HR MAX TEMP:  90; 6HR PCP:  0.61;

LAWRENCEVILLE  CLEAR     79  76  90 SW6       30.05S HX  83
6HR MIN TEMP:  79; 6HR MAX TEMP:  88;

LITCHFIELD     CLEAR     78  76  92 S3        30.04R HX  81
$$


CITY           SKY/WX    TMP DP  RH WIND       PRES   REMARKS
LINCOLN        TSTM      72  70  93 NE21G26   30.10S
6HR MIN TEMP:  72; 6HR MAX TEMP:  91; 6HR PCP:  0.28;

MACOMB         CLOUDY    76  69  80 NE22G32   30.09R
MATTOON        CLOUDY    81  76  84 S5        30.05R HX  87
6HR MIN TEMP:  81; 6HR MAX TEMP:  88;

MT CARMEL AP   CLEAR     78  74  89 S5        30.05S HX  80
6HR MIN TEMP:  78; 6HR MAX TEMP:  87;

OLNEY-NOBLE AP CLEAR     79  79 100 S3        30.05S HX  83
PARIS          MOCLDY    78  77  98 CALM      30.06S HX  80
6HR MIN TEMP:  78; 6HR MAX TEMP:  85;

PEORIA         CLOUDY    73  69  87 E8        30.08S
6HR MIN TEMP:  71; 6HR MAX TEMP:  90; 6HR PCP:  0.48;

PONTIAC        LGT RAIN  73  73 100 W3        30.07F
RANTOUL        NOT AVBL
ROBINSON       CLEAR     78  75  91 S5        30.06S HX  80
6HR MIN TEMP:  78; 6HR MAX TEMP:  88;

SPRINGFIELD    CLOUDY    84  79  85 CALM      30.05R HX  96
6HR MIN TEMP:  84; 6HR MAX TEMP:  91;

TAYLORVILLE    PTCLDY    80  78  94 NW5       30.05R HX  85
$$

...REGIONAL REPORTS...


CITY           SKY/WX    TMP DP  RH WIND       PRES   REMARKS
CHICAGO O`HARE LGT RAIN  74  72  93 SW9       29.98S
KANKAKEE       NOT AVBL
MOLINE         LGT RAIN  71  67  87 E9        30.08F FOG
MOUNT STERLING PTCLDY    80  76  89 CALM      30.00S HX  84
MOUNT VERNON   CLEAR     81  73  78 CALM      30.06F HX  85
PITTSFIELD     CLEAR     83  78  84 SW5       30.02F HX  92
QUINCY         PTCLDY    81  75  82 SW6       29.99F HX  87
ROCKFORD       CLOUDY    70  67  90 NW8       30.05R
$$


CITY           SKY/WX    TMP DP  RH WIND       PRES   REMARKS
BURLINGTON     CLOUDY    76  69  79 NE21G32   30.04R
CEDAR RAPIDS   TSTM      70  70 100 E16G24    30.05R FOG
DES MOINES     CLOUDY    84  77  79 S6        29.95S HX  94
KIRKSVILLE     CLEAR     83  74  74 SW10      30.00F HX  89
OTTUMWA        CLOUDY    79  76  90 S5        29.96F HX  83
ST LOUIS       CLEAR     88  76  67 SW10      30.03F HX  99
$$


CITY           SKY/WX    TMP DP  RH WIND       PRES   REMARKS
TERRE HAUTE    MOCLDY    79  75  87 W5        30.06R HX  83
EVANSVILLE     CLEAR     79  75  87 CALM      30.06F HX  83
INDIANAPOLIS   CLOUDY    78  75  90 SW8       30.07R HX  81
LAFAYETTE      CLOUDY    77  77 100 CALM      30.04S FOG
MADISON        CLOUDY    70  67  90 S10       29.99R
MILWAUKEE      CLOUDY    77  66  68 SW12      29.95F
$$






USA.gov is the U.S. government's official web portal to all federal, state and local government web resources and services.